Regional Weather Roundup
Issued by NWS

Home | Current Version | Previous Version | Graphics & Text | Print | Product List | Glossary On
Versions: 1 2 3 4 5 6 7 8 9 10 11 12 13 14 15 16 17 18 19 20 21 22 23 24 25 26 27 28 29 30 31 32 33 34 35 36 37 38 39 40 41 42 43 44 45 46 47 48 49 50
000
ASUS45 KABQ 301810
RWRNM
WEATHER ROUNDUP FOR NEW MEXICO
NATIONAL WEATHER SERVICE ALBUQUERQUE NM
1200 PM MDT WED JUL 30 2014

NOTE: "FAIR" MEANS FEW OR NO CLOUDS BELOW 12,000 FEET AGL WITH NO
       SIGNIFICANT WEATHER OR OBSTRUCTIONS TO VISION.

      THIS PRODUCT IS RELEASED AS TWO VERSIONS.  ONE VERSION NEAR
      THE TOP OF THE HOUR CONTAINING PRELIMINARY DATA FROM ALBUQUERQUE
      AND OTHER STATIONS.  A FINAL VERSION WITH ADDITIONAL DATA IS
      ISSUED ABOUT 10 MINUTES AFTER THE HOUR.

NMZ501-503-504-510>518-301900-
NORTHWEST PLATEAU/NORTHCENTRAL MOUNTAINS

CITY           SKY/WX    TMP DP  RH WIND       PRES   REMARKS
FARMINGTON     SUNNY     83  46  27 SW10      30.20F
6HR MIN TEMP:  60; 6HR MAX TEMP:  84;

LOS ALAMOS     MOSUNNY   72  53  51 S5        30.34F
SANTA FE       SUNNY     76  57  51 W7        30.27F
6HR MIN TEMP:  59; 6HR MAX TEMP:  76;

TAOS           MOSUNNY   72  52  49 NW7       30.33F
ANGEL FIRE     CLOUDY    67  52  58 W10       30.40S

$$
NMZ402-403-502-505>509-301900-
WESTCENTRAL MOUNTAINS/SOUTHWEST MOUNTAINS

CITY           SKY/WX    TMP DP  RH WIND       PRES   REMARKS
GALLUP         MOSUNNY   80  48  32 VRB3      30.28F
6HR MIN TEMP:  55; 6HR MAX TEMP:  83;

SILVER CITY    PTSUNNY   84  48  28 W12       30.24F

$$
NMZ407-409-411-412-301900-
SOUTHERN DESERTS

CITY           SKY/WX    TMP DP  RH WIND       PRES   REMARKS
LORDSBURG      FAIR      88  52  29 N5        30.16S
DEMING         SUNNY     90  55  30 NW7       30.14F
6HR MIN TEMP:  66; 6HR MAX TEMP:  90;

LAS CRUCES     SUNNY     89  51  27 N3        30.16S
HOLLOMAN AFB   SUNNY     90  57  33 NW8       30.11F
ALAMOGORDO     SUNNY     90  55  31 NW3       30.13S
T OR C         SUNNY     86  55  34 SE3       30.17F
6HR MIN TEMP:  65; 6HR MAX TEMP:  87;


$$
NMZ519>523-301900-
CENTRAL VALLEYS/CENTRAL HIGHLANDS

CITY           SKY/WX    TMP DP  RH WIND       PRES   REMARKS
ALBUQUERQUE    MOSUNNY   78  57  48 VRB6      30.23S
6HR MIN TEMP:  66; 6HR MAX TEMP:  79;

DOUBLE EAGLE   MOSUNNY   75  59  57 VRB5      30.26F
MORIARTY ARPT  FAIR      80  53  38 NW10G16   30.27F
6HR MIN TEMP:  57; 6HR MAX TEMP:  80;

CLINES CORNERS SUNNY     77  52  41 NW10G20   30.31S
6HR MIN TEMP:  56; 6HR MAX TEMP:  77;

BELEN          FAIR      79  61  54 CALM      30.22S
6HR MIN TEMP:  63; 6HR MAX TEMP:  79;

SOCORRO        FAIR      86  53  32 E3        30.18F
6HR MIN TEMP:  63; 6HR MAX TEMP:  86;


$$
NMZ524>526-539-540-301900-
SOUTHCENTRAL MOUNTAINS

CITY           SKY/WX    TMP DP  RH WIND       PRES   REMARKS
RUIDOSO        SUNNY     77  54  44 NW10G20   30.34S

$$
NMZ527>531-301900-
NORTHEAST HIGHLANDS/NORTHEAST PLAINS

CITY           SKY/WX    TMP DP  RH WIND       PRES   REMARKS
LAS VEGAS      MOSUNNY   71  57  61 E12       30.32S
6HR MIN TEMP:  56; 6HR MAX TEMP:  72;

RATON          MOSUNNY   70  57  63 NE20G26   30.28S
6HR MIN TEMP:  60; 6HR MAX TEMP:  71;

CLAYTON        PTSUNNY   71  59  65 N23       30.22R
6HR MIN TEMP:  64; 6HR MAX TEMP:  72;


$$
NMZ532>537-301900-
EASTCENTRAL PLAINS

CITY           SKY/WX    TMP DP  RH WIND       PRES   REMARKS
TUCUMCARI      MOSUNNY   84  59  42 NE16      30.12F
6HR MIN TEMP:  67; 6HR MAX TEMP:  85;

CANNON AFB     MOSUNNY   80  68  65 N14       30.13S
6HR MIN TEMP:  64; 6HR MAX TEMP:  81; 6HR PCP:  0.02;

CLOVIS AIRPORT PTSUNNY   81  64  57 N13G22    30.15

$$
NMZ028-029-538-301900-
SOUTHEAST PLAINS

CITY           SKY/WX    TMP DP  RH WIND       PRES   REMARKS
ROSWELL        SUNNY     87  69  54 VRB6      30.06F
6HR MIN TEMP:  69; 6HR MAX TEMP:  87;

ARTESIA        SUNNY     93  57  29 N13       30.04F
CARLSBAD       SUNNY     98  56  24 N6        30.00F HX  96
6HR MIN TEMP:  74; 6HR MAX TEMP:  98;

HOBBS          SUNNY     95  50  21 W10G20    30.05F


$$


USA.gov is the U.S. government's official web portal to all federal, state and local government web resources and services.